RH
14 15 15 15 16 17 18 19 21 23 25 27 30 33 38 42 47 51 55 59 62 64 65 67 68 69 69 67 65 63 60 58 57 57 57 57 56 54 50 47 45 45 47 48 50 51 51 50 49 49 47 46 45 43 41 41 41 40 40 40 39 38 37
14 14 15 15 16 16 17 17 18 19 20 22 24 26 29 32 35 39 43 47 51 54 57 58 60 62 62 63 63 62 59 56 54 53 53 52 52 51 49 46 44 43 43 44 45 47 49 49 50 51 50 50 49 48 47 46 45 43 42 41 41 42 41
14 14 14 15 16 16 16 17 17 18 18 19 20 21 23 24 27 29 32 36 39 43 46 49 51 53 54 56 57 58 57 56 54 52 51 49 48 48 47 45 44 42 41 41 41 41 42 43 45 46 46 46 46 45 45 45 44 42 41 40 39 40 41
14 14 15 15 16 16 17 17 18 18 18 19 20 20 20 21 22 23 25 27 29 32 35 38 41 44 46 48 49 51 52 52 52 51 50 49 47 46 45 44 43 42 40 40 39 38 38 37 37 38 38 39 39 39 39 40 40 40 40 39 38 38 39
15 15 15 15 15 16 17 17 18 19 19 20 20 21 21 21 22 22 22 23 24 25 26 28 31 33 35 38 40 41 43 43 44 44 44 44 43 42 41 39 39 38 36 36 36 36 35 34 33 32 33 33 33 33 33 33 34 35 36 37 37 37 37
15 15 16 16 16 16 17 17 18 18 19 20 20 21 21 22 22 23 23 23 24 24 24 24 25 26 27 29 31 33 34 35 36 36 37 37 37 36 35 35 34 33 33 32 32 32 32 32 30 30 29 29 29 29 29 29 30 30 31 32 32 33 33
16 16 16 17 17 17 17 17 18 18 18 19 20 20 21 22 22 22 23 23 24 24 24 24 24 24 24 25 26 27 28 29 30 31 32 33 33 33 32 32 31 30 30 29 29 29 29 29 28 27 27 26 26 26 26 27 27 27 28 28 28 29 29
17 17 17 17 18 18 18 18 18 18 19 19 19 20 20 21 22 22 22 23 23 23 24 24 24 24 24 24 24 24 25 25 26 26 27 27 28 29 29 29 28 27 26 26 25 26 26 26 26 25 24 23 23 23 23 23 23 24 24 25 25 26 27
19 18 18 17 18 18 18 19 19 19 19 19 19 20 20 21 21 22 22 22 22 23 23 23 23 23 23 23 23 24 24 24 24 24 24 24 24 24 24 24 24 24 23 22 22 22 21 22 22 22 22 21 20 20 19 19 19 19 20 21 22 23 24
21 20 19 18 18 18 18 19 19 19 19 19 20 20 20 21 21 21 22 22 22 22 21 22 22 22 22 22 22 23 23 23 23 23 23 22 22 22 22 22 22 22 21 21 20 20 19 19 19 19 19 19 19 18 18 17 17 17 18 19 20 21 23
21 21 21 20 19 18 17 17 17 18 18 18 19 19 19 20 20 20 21 21 21 20 20 20 20 20 21 20 20 21 21 21 22 22 22 21 21 21 21 21 21 21 21 20 20 20 20 20 19 18 18 18 18 17 17 17 16 17 17 18 19 21 22
18 19 20 20 20 19 18 17 17 17 16 16 17 17 18 19 19 20 20 20 20 19 19 19 19 19 19 20 20 20 20 20 20 20 20 19 19 19 18 18 19 19 19 18 18 19 19 19 19 18 17 17 17 17 16 17 17 17 17 17 18 19 21
17 16 17 17 18 19 18 18 17 17 16 16 15 15 16 16 18 19 19 18 18 18 18 18 18 18 18 18 19 19 19 19 19 18 18 17 17 17 17 16 16 17 17 16 16 17 17 17 17 17 17 17 16 16 16 16 16 16 16 17 17 18 19
16 16 15 15 15 16 16 17 17 17 17 17 16 16 15 15 16 17 17 17 16 16 17 17 17 17 17 17 17 17 18 18 18 17 17 16 16 16 16 16 15 15 15 15 15 15 16 16 16 16 17 16 16 16 16 16 16 15 16 16 17 18 19
16 16 15 15 14 14 14 14 14 15 16 16 16 16 16 16 17 17 16 16 16 15 15 15 16 16 17 17 17 16 16 16 16 16 16 16 16 15 15 15 15 15 15 14 14 15 15 16 16 16 16 16 16 16 17 17 18 18 17 17 17 17 18
17 16 16 16 15 15 15 14 13 13 13 13 13 14 15 16 16 17 18 18 17 17 16 15 15 15 15 15 16 15 15 15 15 15 15 15 15 15 14 14 14 14 14 14 14 14 15 15 16 16 16 16 16 16 17 18 19 19 19 18 18 19 20
18 17 16 16 16 16 16 15 15 14 13 12 11 10 11 12 12 13 14 15 16 16 16 15 15 15 15 15 15 15 15 15 14 15 15 15 15 15 15 15 14 14 14 14 14 14 15 15 15 15 15 15 16 16 17 17 18 18 18 19 19 20 22
19 18 17 17 16 16 16 15 15 15 14 14 12 11 11 10 10 10 11 11 12 12 13 13 12 13 14 14 14 14 14 14 13 13 14 14 15 15 15 15 15 15 15 15 15 15 15 16 16 16 16 16 15 15 15 15 16 16 16 16 17 18 20
19 19 18 17 17 17 16 15 15 14 14 14 12 11 11 10 11 11 11 10 10 10 10 10 10 10 11 11 11 11 11 11 10 10 11 11 11 12 13 13 13 14 14 14 15 15 15 16 16 16 16 16 15 15 14 14 14 15 15 15 15 16 18
17 17 15 14 14 14 13 13 13 12 12 11 10 9 9 9 9 10 10 10 10 10 9 9 9 9 9 8 8 8 8 8 8 8 8 7 8 8 9 9 9 10 11 11 12 12 12 12 12 12 12 13 14 14 14 14 14 14 14 14 14 15 16
13 13 13 12 11 10 10 10 10 10 10 9 9 8 7 7 8 8 8 8 8 8 9 9 9 9 8 8 8 8 8 8 7 7 7 7 7 7 7 7 7 7 8 8 8 8 8 8 8 8 8 9 10 11 11 12 12 12 11 12 12 13 14
10 10 10 10 9 9 8 8 8 8 8 8 8 7 7 7 7 6 6 7 7 7 7 8 8 8 8 8 8 8 8 8 8 8 8 8 8 7 7 7 7 7 7 7 7 7 7 7 7 7 8 7 7 8 8 8 9 9 8 8 8 9 10
9 9 10 10 9 9 9 9 9 8 8 8 8 8 7 7 7 7 7 7 7 7 7 7 7 7 7 7 7 7 7 7 7 7 7 7 7 7 7 7 7 7 7 7 7 7 7 7 7 7 7 7 6 6 6 6 6 7 7 7 7 7 7
9 9 9 9 9 9 9 9 9 8 8 8 8 7 7 7 7 7 7 7 7 7 7 7 7 7 7 7 7 7 7 6 6 6 6 6 6 6 5 6 6 6 6 6 6 6 6 7 7 7 7 6 6 6 6 6 6 6 6 6 6 6 6
9 9 9 9 9 9 9 8 8 8 8 8 7 7 7 7 6 6 6 6 6 6 6 6 6 7 7 7 7 7 7 6 6 6 6 6 6 6 6 6 6 6 6 6 6 6 6 6 6 6 6 6 6 6 6 6 6 5 6 6 6 6 6
8 8 8 8 8 8 8 8 8 8 8 8 8 8 8 7 7 7 7 7 6 6 6 6 6 6 6 6 6 6 6 6 6 5 5 5 5 5 5 6 6 6 6 6 6 6 7 7 7 7 6 6 6 6 6 6 6 6 5 5 5 5 6
8 8 8 7 8 8 7 7 7 7 7 6 6 6 6 6 6 6 6 6 6 6 6 6 6 6 6 6 6 6 6 6 5 5 5 5 5 5 5 5 5 5 5 5 6 6 6 6 7 7 7 7 7 7 7 7 6 6 6 6 6 6 6
8 9 9 9 9 9 9 9 8 8 7 7 7 7 6 6 6 6 6 6 6 6 6 6 5 5 5 5 5 5 5 5 5 5 5 5 5 5 5 5 5 5 5 5 5 5 6 6 6 6 6 6 6 6 6 6 6 6 6 6 6 6 6
8 8 8 8 8 8 8 8 8 8 8 8 8 7 7 7 7 7 7 7 6 6 6 6 6 6 5 5 5 5 5 5 5 5 5 4 4 4 4 4 4 4 5 5 5 5 5 5 6 6 6 6 5 5 5 5 5 5 5 5 5 6 6
6 6 6 6 6 6 7 7 7 6 6 6 6 6 6 6 6 7 7 7 7 7 7 7 6 6 6 6 6 6 6 6 6 6 5 5 5 5 4 4 4 4 4 4 4 4 4 5 5 5 5 5 6 6 6 6 6 5 5 5 5 5 5
5 6 6 6 6 6 5 5 5 5 5 5 5 5 5 5 5 5 5 6 5 6 6 6 6 6 6 6 6 6 6 7 6 6 6 6 6 6 5 5 5 5 5 4 4 4 4 4 4 4 5 5 5 5 5 5 6 6 6 6 6 6 6
5 5 6 6 6 6 6 5 5 5 5 5 5 5 4 5 5 5 5 5 5 5 5 5 5 5 5 5 5 5 5 5 6 5 5 6 6 5 5 5 5 5 5 5 5 5 5 5 5 5 5 5 4 5 5 5 5 5 5 5 5 5 6
5 5 6 6 6 6 6 6 5 5 5 5 5 5 5 4 5 4 4 4 4 4 4 4 4 4 4 4 4 4 4 4 4 4 4 5 5 5 5 5 5 5 5 5 5 5 5 5 5 5 6 5 5 5 5 5 5 5 4 4 5 5 5
5 5 5 5 5 5 6 6 5 5 5 5 5 5 5 5 4 4 4 4 4 4 4 4 4 4 4 4 4 4 4 4 4 4 4 4 4 4 4 4 4 4 4 4 4 4 4 5 5 5 5 5 5 5 5 5 5 5 5 5 5 4 5
5 5 5 5 5 5 5 5 5 5 5 5 5 5 5 5 4 4 4 4 4 4 4 4 4 4 4 4 4 4 4 4 4 4 4 4 4 4 4 4 4 4 4 4 4 4 4 4 4 4 5 5 5 5 5 5 5 5 5 5 5 5 5
4 4 5 5 5 5 5 5 5 5 5 5 5 5 5 5 5 5 4 4 4 4 4 4 4 4 4 4 4 4 4 3 3 4 3 3 4 4 4 4 4 3 4 3 3 4 4 4 4 4 4 4 4 4 4 5 4 5 5 5 5 5 5
Wind_Speed
118 119 120 122 123 124 125 127 128 129 131 132 133 134 135 136 137 138 139 140 141 142 142 143 143 144 144 144 144 144 143 142 141 141 141 141 141 140 139 137 135 132 131 131 131 132 133 133 133 133 133 133 132 132 131 131 130 130 130 129 129 128 128
116 118 119 120 121 122 124 125 127 128 130 131 132 133 135 136 137 138 139 140 141 142 142 143 144 144 145 145 145 145 144 144 143 143 143 142 142 141 140 139 137 135 133 132 132 132 132 133 133 133 133 133 133 133 133 132 132 131 130 130 129 129 128
114 116 117 119 120 121 122 123 124 126 127 129 130 132 133 135 136 137 138 139 140 141 142 143 143 144 145 145 145 145 145 145 144 144 144 143 143 142 142 141 140 138 136 134 133 133 133 133 133 133 134 134 134 134 133 133 133 133 132 131 130 130 129
112 114 116 117 119 120 121 122 123 124 125 127 128 129 131 133 134 136 137 139 140 141 142 142 143 144 145 145 145 145 145 145 145 145 145 145 144 144 143 142 142 140 139 137 136 135 135 134 134 134 134 134 134 134 134 134 133 133 133 133 132 131 131
111 112 114 116 117 119 120 121 122 124 125 126 127 128 129 130 132 133 135 136 138 139 141 142 143 144 144 145 145 146 146 146 146 146 146 146 145 145 144 144 143 142 141 139 138 138 137 137 136 135 135 135 135 135 134 134 133 133 133 133 133 132 132
109 111 113 114 116 118 119 120 122 123 124 125 126 127 128 129 130 131 133 134 135 137 138 140 141 142 143 144 145 145 146 146 146 146 146 146 146 146 145 145 144 143 142 141 140 139 138 138 137 136 136 136 136 135 135 134 134 133 133 133 133 133 132
108 109 111 113 115 116 118 119 121 122 123 125 126 127 128 129 130 131 132 133 134 135 137 138 139 140 141 142 143 144 144 145 145 145 146 146 146 146 146 145 145 144 143 142 141 140 139 138 138 137 137 137 137 136 135 134 134 133 133 133 132 132 132
107 109 111 112 114 115 117 118 120 121 123 124 125 126 127 128 130 131 132 133 134 135 136 137 138 138 139 140 141 142 142 143 143 144 144 145 145 145 145 145 145 144 144 143 142 141 140 139 139 138 138 138 137 137 136 135 135 133 133 132 132 132 132
105 107 110 112 114 115 116 118 119 120 122 123 124 126 127 128 129 130 131 132 133 134 135 136 137 138 139 139 140 140 141 141 142 142 143 143 143 144 144 144 144 144 143 143 142 141 140 139 138 138 138 138 138 137 136 136 134 133 132 132 131 131 131
105 107 109 111 113 115 116 118 119 120 121 122 123 125 126 127 128 129 130 132 133 134 135 136 137 137 138 139 139 139 140 140 141 141 141 142 142 142 142 142 142 142 142 141 141 140 139 138 138 137 137 137 137 137 136 135 134 132 131 131 130 130 130
106 107 109 110 112 114 115 117 119 120 121 122 123 124 125 126 127 128 130 131 132 134 134 135 136 137 137 138 139 139 139 140 140 140 141 141 141 141 141 141 141 141 141 140 139 139 139 138 137 136 136 135 135 135 135 134 133 131 131 130 129 128 129
106 108 109 110 112 113 115 116 118 119 121 122 123 124 125 125 126 127 129 130 132 133 133 134 135 135 136 137 138 138 139 139 140 140 140 141 141 141 141 141 141 140 140 140 139 138 138 137 137 136 135 135 134 134 133 133 132 131 130 129 128 127 127
107 108 109 110 112 113 115 116 117 118 119 121 122 123 124 125 126 127 128 129 130 131 132 133 133 134 135 135 136 137 138 138 139 139 140 140 140 140 140 140 140 139 139 139 138 137 137 137 136 135 135 135 134 133 133 132 131 130 129 128 127 126 126
107 108 109 110 111 113 114 115 116 117 118 119 120 121 122 123 124 126 128 129 130 130 131 131 132 132 133 134 134 135 136 137 137 138 138 139 139 139 139 139 139 139 138 138 137 136 136 136 135 135 134 134 133 133 132 131 130 129 129 128 127 126 126
106 107 108 109 110 111 113 114 115 116 117 118 119 120 120 121 122 124 126 127 128 129 130 130 131 131 132 133 133 133 134 134 135 136 136 136 137 137 137 137 137 137 136 136 135 135 134 134 134 134 133 133 132 131 130 130 130 129 129 128 127 125 125
105 106 107 108 109 110 112 113 114 115 116 117 118 119 119 120 121 122 124 125 127 128 128 129 129 130 131 131 132 132 133 133 133 134 134 134 134 134 135 134 134 134 133 133 132 132 132 132 132 132 132 131 130 129 129 129 129 128 128 128 126 125 124
105 105 106 107 108 109 110 112 113 114 115 116 117 117 117 118 119 120 121 123 125 126 127 128 128 128 129 129 130 131 131 131 132 132 132 132 133 133 133 133 132 131 131 130 130 130 130 129 130 130 129 128 128 127 127 127 127 126 126 125 124 123 123
104 105 105 106 107 108 109 110 111 112 114 115 116 116 116 117 117 118 119 120 122 124 125 126 126 127 127 128 129 129 130 130 130 130 130 130 130 131 131 131 131 130 130 129 129 129 128 128 129 129 129 128 127 126 125 125 124 124 124 123 121 120 121
103 104 105 106 106 107 108 109 110 111 112 114 114 115 115 115 115 116 117 119 120 121 122 123 124 125 126 126 127 128 129 129 129 128 128 128 128 128 128 128 128 128 128 128 128 128 127 128 129 129 128 127 126 125 124 124 123 123 122 121 120 119 119
102 103 104 105 106 106 107 108 109 110 111 112 113 113 113 112 113 114 115 116 117 118 119 120 121 123 124 124 125 125 126 127 127 126 126 125 125 125 125 126 126 125 126 126 127 128 128 127 127 125 124 123 123 124 124 124 123 123 122 121 120 119 119
101 102 103 104 105 105 106 106 107 108 110 111 112 112 112 111 111 112 112 113 114 114 116 117 118 119 120 121 121 122 122 123 124 124 123 123 123 124 124 124 123 123 123 124 125 126 126 125 123 122 122 122 122 122 123 124 124 123 123 121 120 120 119
99 100 101 102 103 104 104 105 105 106 107 108 109 110 110 110 110 110 109 109 110 112 113 113 115 116 117 117 118 118 118 119 119 119 120 120 121 122 121 121 120 120 120 121 122 123 122 121 121 121 121 122 121 121 122 122 123 123 122 121 120 119 119
96 97 98 100 101 102 102 103 104 104 105 106 107 107 108 108 107 107 107 107 108 109 110 111 112 113 114 114 115 115 115 115 115 116 116 117 118 118 118 117 117 117 118 119 119 120 120 119 120 120 121 121 121 120 120 120 120 120 120 120 119 119 118
94 95 96 97 99 100 101 101 102 103 104 105 105 106 106 106 106 106 105 105 105 106 107 108 109 110 111 111 112 112 112 112 113 113 114 114 114 114 114 113 113 114 114 115 115 116 116 117 117 118 119 119 119 119 118 118 118 118 118 118 118 118 117
92 93 94 95 96 98 99 99 100 101 102 103 103 104 105 105 105 105 105 104 104 104 105 105 106 107 108 109 109 110 110 110 111 111 111 111 111 110 110 110 110 110 110 111 111 112 113 114 114 115 116 116 117 117 117 117 116 116 116 116 115 115 115
91 91 92 93 94 95 96 97 98 99 100 100 101 101 102 103 103 104 103 103 103 103 103 103 104 105 106 107 107 107 108 108 108 109 109 108 108 108 107 107 107 107 107 108 108 109 110 111 112 112 113 113 114 114 115 115 115 115 114 114 114 113 112
88 89 90 90 91 92 94 95 96 97 98 98 98 99 99 100 101 101 101 101 101 101 101 102 102 103 104 105 105 105 105 105 105 106 106 106 106 105 105 104 105 105 105 105 106 107 107 108 109 110 110 111 111 112 112 112 113 113 113 113 112 111 110
87 87 88 88 89 91 92 93 95 96 96 96 96 96 97 97 98 99 99 99 99 99 99 100 100 101 102 103 103 102 103 103 103 104 104 104 103 103 102 102 102 102 102 103 103 104 105 106 107 108 108 109 109 109 110 110 111 111 111 111 111 110 108
86 86 87 87 88 89 90 92 93 94 94 94 94 95 95 95 96 96 96 96 97 97 98 98 99 99 100 100 100 100 101 101 102 102 102 102 102 102 101 100 100 100 100 100 100 101 102 103 104 105 105 106 106 107 107 108 108 108 108 109 109 108 107
85 85 86 86 87 88 89 90 91 92 92 92 92 93 93 93 93 94 94 94 95 95 96 96 97 97 97 98 98 98 99 100 100 100 100 100 101 100 100 100 99 98 98 98 98 99 100 100 101 101 102 103 103 104 105 106 106 106 107 107 107 106 106
82 82 83 84 85 86 86 87 88 89 89 89 89 90 90 90 90 90 91 92 93 93 93 94 94 95 95 96 96 96 97 97 98 98 99 99 99 99 99 98 98 97 97 97 97 98 98 98 98 98 99 100 100 101 102 103 104 105 105 105 105 105 105
80 80 80 81 82 83 84 85 85 85 86 87 87 87 86 86 87 87 88 89 89 90 90 91 91 91 92 93 93 93 94 94 95 96 96 96 97 97 97 97 97 97 97 97 96 96 96 96 96 97 97 98 98 99 100 101 102 102 103 103 103 103 103
78 78 78 79 80 80 81 83 83 83 83 84 84 84 84 84 85 85 85 86 86 86 86 87 87 87 88 89 90 90 90 91 92 92 92 93 94 94 95 95 95 96 96 96 96 95 94 94 95 96 96 97 97 97 98 99 100 100 101 100 100 101 101
75 76 77 77 78 78 79 80 80 81 81 81 81 82 82 82 83 83 83 83 83 83 83 84 84 84 85 86 86 87 87 87 88 88 88 89 89 90 91 92 93 93 94 94 94 93 93 93 93 94 95 95 95 96 96 97 98 99 99 98 98 98 98
72 73 74 75 76 77 77 77 78 78 79 79 79 79 80 81 81 81 81 81 81 81 81 81 81 82 82 82 83 83 84 84 84 84 84 85 85 86 87 88 89 90 91 91 91 91 91 91 91 92 93 93 94 95 95 96 96 97 97 96 96 96 96
72 71 71 72 74 75 75 75 76 76 76 77 77 77 78 79 80 80 80 80 79 79 79 79 79 79 80 80 80 80 81 81 81 81 81 82 82 83 84 85 86 87 87 87 87 87 87 87 88 90 91 91 92 93 93 94 94 94 95 95 95 94 95
Wind_Direction
248 248 248 248 248 248 249 249 249 249 249 249 249 249 249 249 249 250 251 251 252 253 254 254 255 256 257 257 258 259 259 259 259 260 260 261 261 262 262 262 262 262 262 262 262 263 263 264 265 265 266 266 266 267 267 267 267 267 268 268 268 268 269
248 248 249 249 249 249 249 249 249 249 249 250 250 250 250 250 250 250 251 251 252 253 253 254 255 255 256 257 258 258 259 259 259 260 260 260 261 261 262 262 262 262 262 261 261 262 262 263 264 264 265 265 266 266 266 267 267 267 267 267 267 268 268
248 249 249 249 249 249 249 249 249 250 250 250 250 250 251 251 251 251 251 252 252 252 253 254 254 255 256 256 257 258 258 259 259 260 260 260 261 261 261 262 262 262 262 261 261 261 261 261 262 263 263 264 264 265 266 266 266 267 267 267 267 267 268
249 249 249 249 249 249 250 250 250 250 250 250 251 251 251 251 252 252 252 252 252 253 253 253 254 255 255 256 257 257 258 258 259 259 260 260 260 261 261 261 261 261 261 261 261 261 261 261 261 261 262 262 263 264 264 265 265 266 266 267 267 267 267
249 249 249 249 249 249 249 250 250 250 250 251 251 251 251 251 252 252 253 253 253 254 254 254 254 255 255 256 256 257 257 258 258 259 259 260 260 260 260 261 261 261 261 261 261 261 261 261 261 262 262 262 262 263 263 264 264 265 265 266 266 267 267
249 249 249 249 249 249 249 249 250 250 250 251 251 251 251 251 252 252 252 253 253 254 254 255 255 255 256 256 257 257 257 258 258 259 259 260 260 261 261 261 261 262 262 262 262 262 262 262 262 262 262 263 263 263 263 264 264 264 265 265 265 266 266
249 249 250 250 250 250 250 250 250 250 250 250 251 251 251 251 252 252 252 252 253 253 254 254 255 255 256 256 257 257 258 258 259 259 259 260 261 261 261 262 262 262 262 263 263 263 263 263 263 263 263 263 263 264 264 264 264 264 265 265 266 266 266
249 249 249 250 250 250 250 250 250 250 250 250 250 251 251 251 252 252 252 253 253 253 254 254 254 255 255 256 256 257 257 258 258 259 259 260 260 261 261 262 262 262 262 263 263 263 263 263 264 264 264 264 264 264 264 264 264 264 265 265 265 266 266
250 250 249 249 250 250 250 250 250 250 250 250 250 250 251 251 251 252 252 252 253 253 254 254 254 255 255 256 256 256 257 257 258 258 259 259 260 260 261 261 262 262 262 263 263 263 263 263 263 264 264 264 265 265 265 264 264 265 265 265 265 266 266
251 250 250 250 250 250 250 250 250 251 251 251 251 251 251 251 251 252 252 252 253 253 253 254 254 255 255 256 256 257 257 258 258 258 259 259 260 260 261 261 261 262 262 263 263 263 263 263 263 263 264 264 265 265 265 265 265 265 265 265 266 266 266
252 251 251 251 251 250 250 250 250 251 251 251 251 251 252 252 252 252 252 253 253 253 253 254 254 255 255 256 256 257 257 258 258 258 259 259 260 260 260 261 261 262 262 262 263 263 263 264 264 264 264 264 264 264 265 265 265 265 265 265 265 266 266
253 252 252 252 252 252 251 251 251 251 251 251 252 252 252 252 253 253 253 253 253 254 254 254 254 255 255 256 256 257 257 257 258 258 259 259 260 260 260 261 261 262 262 262 263 263 263 264 264 264 264 264 264 265 265 265 265 265 265 265 265 265 266
254 254 254 253 253 253 253 253 253 252 252 252 252 252 253 253 253 254 254 254 255 255 255 255 255 255 256 256 256 257 257 257 258 258 259 259 260 260 260 261 261 262 262 262 263 263 263 264 264 264 265 265 265 265 265 265 265 265 265 266 266 266 266
255 255 255 255 255 255 255 254 254 254 254 254 254 254 254 254 254 254 255 255 256 256 256 256 257 257 257 257 257 257 257 258 258 259 259 260 260 260 261 261 261 262 262 262 263 263 263 264 264 264 264 265 265 265 265 266 266 266 266 266 266 266 266
256 256 256 256 257 257 257 256 256 256 256 256 256 256 256 255 255 255 256 256 257 257 257 257 257 258 258 258 258 259 259 259 259 259 260 260 260 261 261 261 262 262 262 263 263 263 263 264 264 264 264 265 265 265 265 266 266 266 266 266 266 266 266
257 257 257 257 257 257 258 258 258 258 258 257 257 257 257 256 256 256 257 257 257 258 258 258 258 258 259 259 259 260 260 260 260 260 261 261 261 262 262 262 262 263 263 263 264 264 264 264 264 264 264 265 265 265 265 265 265 265 265 266 266 266 266
259 259 258 258 258 258 258 258 258 259 259 259 259 258 258 258 258 257 257 258 258 259 259 259 259 259 260 260 260 260 260 260 261 261 261 261 262 262 263 263 264 264 264 264 264 265 265 265 265 265 265 265 265 265 265 265 265 265 265 265 265 265 265
261 260 260 260 260 260 259 259 259 259 259 260 260 260 259 259 259 259 259 259 259 259 259 260 260 260 261 261 261 261 261 261 261 261 261 261 261 262 262 263 263 264 264 264 264 265 265 265 265 265 265 265 265 265 265 265 264 264 264 264 265 265 265
261 261 261 261 261 261 261 261 261 260 260 260 260 260 260 260 260 260 260 260 260 260 260 260 261 261 261 261 261 261 261 261 262 261 261 261 261 262 262 262 263 263 263 264 264 264 264 263 263 263 264 264 264 265 265 265 264 264 264 264 264 264 264
262 262 262 262 261 261 261 261 262 262 262 262 262 262 262 261 261 261 261 260 261 261 261 261 261 261 261 261 261 261 262 262 262 262 262 262 262 263 263 262 262 262 263 263 263 263 263 262 262 263 263 264 264 264 265 264 264 264 263 263 263 263 262
262 263 263 263 263 263 263 263 263 263 263 263 264 264 264 263 263 262 262 262 262 262 262 262 262 262 262 262 262 262 262 263 263 263 264 264 264 263 263 263 263 263 263 263 263 263 263 263 264 264 264 264 263 263 263 263 264 263 263 262 262 262 262
263 263 263 264 264 264 264 264 264 264 264 264 264 264 264 264 264 264 264 263 263 263 263 263 263 263 263 263 263 262 262 262 262 263 263 263 263 263 263 263 263 263 263 263 263 263 264 264 264 264 264 263 263 262 262 262 262 262 262 262 262 262 261
265 264 264 264 264 264 264 265 265 265 264 264 265 265 265 265 264 264 264 264 263 263 263 263 263 263 263 263 263 263 263 262 262 262 262 262 261 261 261 262 262 262 262 262 262 263 263 263 263 263 263 263 262 262 262 261 261 262 262 262 262 262 261
265 265 265 265 265 264 264 264 264 264 264 265 265 265 265 265 265 265 264 264 264 263 263 263 263 264 264 264 264 263 263 263 263 262 262 262 261 261 261 261 261 261 261 261 261 262 262 262 262 262 262 262 262 262 262 262 261 261 261 261 261 261 261
265 265 265 265 265 265 265 265 265 264 264 264 265 265 265 265 265 265 265 265 264 264 264 264 264 264 264 264 264 264 264 264 263 263 263 263 262 262 262 262 262 262 261 261 261 261 261 261 261 261 261 261 262 262 262 262 261 261 261 261 260 260 260
266 266 266 266 266 266 266 266 265 265 265 265 265 265 265 265 265 265 265 265 265 265 265 264 264 264 264 264 264 264 264 264 264 263 263 263 263 263 262 262 262 262 262 262 261 261 261 261 261 261 261 261 261 261 261 261 261 261 261 261 260 260 260
266 266 266 266 266 266 266 266 266 265 265 265 265 265 265 265 265 265 265 265 265 265 265 265 265 265 264 264 264 264 264 264 264 264 264 264 263 263 263 262 262 262 261 261 261 261 261 261 261 261 261 261 261 261 261 261 261 261 261 261 261 260 260
267 267 267 266 266 266 266 266 266 266 265 265 265 265 265 265 265 265 265 265 265 265 265 265 264 264 264 264 265 265 265 265 265 265 265 265 264 264 263 263 262 262 261 261 261 260 260 260 260 260 260 260 261 261 261 261 261 261 261 261 261 261 260
269 269 268 268 267 267 267 267 266 266 266 266 266 266 265 265 265 265 265 265 265 265 265 264 264 264 264 265 265 265 265 265 265 265 265 265 265 265 264 263 263 262 262 261 261 260 260 260 260 260 260 260 260 261 261 261 261 261 261 261 261 260 260
270 270 270 269 269 268 267 267 267 267 267 266 266 266 266 266 266 266 266 265 265 265 265 265 264 264 264 264 264 264 264 265 265 265 265 265 265 265 264 264 263 263 262 262 261 261 260 260 260 260 260 260 260 260 260 260 260 260 260 260 260 260 260
270 270 270 270 270 269 269 268 268 268 268 267 267 266 266 266 266 265 265 265 265 264 264 264 264 264 264 264 264 264 264 264 264 264 264 264 264 264 264 264 264 264 263 262 262 261 261 261 261 260 260 260 260 259 260 260 260 259 259 259 259 259 259
271 271 270 270 270 270 270 269 269 268 268 268 268 267 267 267 266 266 265 265 264 264 264 264 264 264 264 264 264 263 263 263 263 263 263 263 264 264 264 264 264 264 263 263 262 262 261 261 261 261 260 260 260 259 259 259 259 259 259 259 259 259 259
272 271 271 270 269 269 269 269 269 269 269 268 268 268 268 268 267 266 266 265 265 264 264 264 264 263 263 263 263 263 263 262 262 262 262 262 263 263 263 263 263 263 263 263 262 262 262 261 261 261 261 260 260 259 259 259 259 259 259 259 259 259 259
271 271 271 271 270 270 269 269 269 269 269 269 269 269 269 268 268 267 267 266 266 265 265 265 264 264 264 263 263 263 263 262 262 262 262 262 262 262 262 262 262 262 262 262 262 262 261 261 261 261 261 260 260 260 259 259 259 259 259 259 259 259 259
271 271 271 271 271 271 270 270 270 269 270 269 269 269 269 269 268 268 267 267 267 266 266 266 265 265 264 264 264 264 264 263 263 263 262 262 262 262 261 261 261 261 261 261 261 261 261 261 261 260 260 260 260 260 259 259 259 259 259 259 259 259 259
272 271 270 270 270 271 270 270 270 270 270 269 269 269 269 269 269 269 268 268 267 267 267 266 266 266 265 265 265 265 265 264 264 264 263 263 262 262 261 261 261 261 261 260 260 260 260 260 260 259 259 259 259 259 259 259 259 259 259 259 259 259 259